Ana Sayfa
METAR-TAF:

METAR-TAF

Havaalanları :

Concord, Kuzey Carolina, Amerika Birleşik Devletleri

Enlem: 35-23-07N, Boylam: 080-42-35W, yükseklik: 210 m

Güncel hava durumu gözlemi

Rapor saat 13:50 UTC de 49 dakika önce yapıldı.
Rüzgar kuzeydan 7 kt
Sıcaklık 17°C
Nem 59%
Basınç 1022 hPa
Görüş mesafesi: 16.1 km
Açık gökyüzü

METAR: KJQF 241350Z 01007KT 10SM CLR 17/09 A3019

Saat: 10:39 (14:39 UTC)


TAF: eksik

4.000'den fazla havaalanı için hava durumu gözlemleri ve tahminleri (METAR ve TAF raporları).

Kullanılabilir istasyonlar harita üzerinde sarı ve kırmızı noktalarla gösterilir.

İstasyonun adını görmek için fareyi noktanın üzerinde gezdirin.

Sonrasında hava gözlem ve tahminlerini görmek için tıklayın.

Haritayı değiştirmek için: yaklaştırmak için siyah artı işaretli yeşil düğmeye ve uzaklaştırmak için de eksi işaretli düğmeye hızla tıklayın; bitişik haritalar için yeşil okları kullanın.


METAR-TAF: